User: anonymous   Login
Location: Unspecified
(0.0000°N, 0.0000°E)
Time: 14:35:07
(UTC+00:00)
Language:

EUCROPIS - Orbit

View from above orbital plane
View from above orbital plane
View from above satellite
View from above satellite

Ground track
Ground track

The orbit data is extracted from the following two-line orbital elements,

1 43807U 18099BB  22026.79872144  .00001216  00000-0  11257-3 0  9992
2 43807  97.6433  97.9115 0012991  25.6828 334.5036 14.96272248171302
Epoch (UTC): 26 January 2022 19:10:09
Eccentricity: 0.0012991
inclination: 97.6433°
perigee height: 569 km
apogee height: 587 km
right ascension of ascending node: 97.9115°
argument of perigee: 25.6828°
revolutions per day: 14.96272248
mean anomaly at epoch: 334.5036°
orbit number at epoch: 17130

The dashed part of the orbit path shows where the satellite is in the earth's shadow,  

DLR